Weather History for KCRP - October, 2013

Change the Weather History Date:

Tuesday, October 1, 2013

  Actual Average Record
Temperature  
Mean Temperature 86 °F 78 °F  
Max Temperature 93 °F 87 °F 96 °F (1989)
Min Temperature 78 °F 69 °F 52 °F (1985)
Degree Days  
Heating Degree Days 0 0  
Month to date heating degree days 0 0  
Since 1 July heating degree days 0 0  
Cooling Degree Days 21 13  
Month to date cooling degree days 21 13  
Year to date cooling degree days 3616 3056  
Growing Degree Days 36 (Base 50)    
Moisture  
Dew Point 76 °F    
Average Humidity 77    
Maximum Humidity 94    
Minimum Humidity 60    
Precipitation  
Precipitation 0.22 in 0.13 in 2.47 in (1958)
Month to date precipitation 0.22 0.13  
Year to date precipitation 17.54 24.45  
Snow  
Snow 0.00 in - - ()
Month to date snowfall 0.0  
Since 1 July snowfall 0.0  
Since 1 September snowfall 0.0  
Snow Depth 0.00 in    
Sea Level Pressure  
Sea Level Pressure 29.85 in    
Wind  
Wind Speed 11 mph (SSE)    
Max Wind Speed 20 mph    
Max Gust Speed 26 mph    
Visibility 9 miles    
Events Rain    
T = Trace of Precipitation, MM = Missing Value Source: NWS Daily Summary

Daily Weather History Graph

Daily Weather History Graph

Search for Another Location

Airport or City:

Trip Planner

Search our weather history database for the weather conditions in past years. The results will help you decide how hot, cold, wet, or windy it might be!

Date:

Astronomy

Oct. 01, 2013 Rise Set
Actual Time 7:22 AM CDT 7:15 PM CDT
Civil Twilight 6:59 AM CDT 7:39 PM CDT
Nautical Twilight 6:32 AM CDT 8:06 PM CDT
Astronomical Twilight 6:05 AM CDT 8:33 PM CDT
Moon 4:13 AM CDT (10/1) 5:07 PM CDT (10/1)
Length of Visible Light 12h 39m
Length of Day
11h 52m
Waning Crescent, 12% of the Moon is Illuminated
Oct 1
Waning Crescent
Oct 4
New
Oct 11
First Quarter
Oct 18
Full
Oct 26
Last Quarter

Hourly Weather History & Observations

Time (CDT) Temp. Heat Index Dew Point Humidity Pressure Visibility Wind Dir Wind Speed Gust Speed Precip Events Conditions
12:51 AM 81.0 °F 87.3 °F 75.9 °F 85% 29.83 in 10.0 mi SE 6.9 mph - N/A   Partly Cloudy
1:51 AM 80.2 °F 86.3 °F 77.0 °F 90% 29.83 in 10.0 mi SSE 8.1 mph - N/A   Partly Cloudy
2:51 AM 79.2 °F - 75.9 °F 90% 29.83 in 10.0 mi South 6.9 mph - N/A   Partly Cloudy
3:51 AM 78.3 °F - 75.0 °F 90% 29.83 in 10.0 mi South 6.9 mph - N/A   Partly Cloudy
4:51 AM 78.1 °F - 75.0 °F 90% 29.82 in 10.0 mi South 5.8 mph - N/A   Partly Cloudy
5:51 AM 77.7 °F - 75.0 °F 91% 29.83 in 10.0 mi South 5.8 mph - N/A   Partly Cloudy
6:51 AM 78.1 °F - 75.0 °F 90% 29.84 in 10.0 mi South 3.5 mph - N/A   Partly Cloudy
7:51 AM 78.1 °F - 75.0 °F 90% 29.86 in 10.0 mi South 3.5 mph - 0.00 in   Partly Cloudy
8:51 AM 81.0 °F 87.3 °F 75.9 °F 85% 29.88 in 10.0 mi South 4.6 mph - N/A   Mostly Cloudy
9:51 AM 84.9 °F 95.3 °F 77.0 °F 77% 29.88 in 10.0 mi SSW 12.7 mph - N/A   Mostly Cloudy
10:25 AM 84.2 °F 94.1 °F 77.0 °F 79% 29.89 in 2.5 mi SW 11.5 mph - 0.02 in Rain Light Rain
10:36 AM 82.4 °F 92.4 °F 78.8 °F 89% 29.89 in 4.0 mi SSW 10.4 mph - 0.07 in Rain Light Rain
10:51 AM 84.0 °F 94.8 °F 78.1 °F 82% 29.88 in 5.0 mi South 4.6 mph - 0.21 in Rain Heavy Rain
11:51 AM 89.1 °F 100.2 °F 75.9 °F 65% 29.88 in 10.0 mi South 15.0 mph - 0.01 in   Scattered Clouds
12:51 PM 91.0 °F 102.9 °F 75.9 °F 61% 29.86 in 10.0 mi SSE 13.8 mph 19.6 mph N/A   Scattered Clouds
1:51 PM 91.9 °F 103.2 °F 75.0 °F 58% 29.84 in 10.0 mi SSE 11.5 mph - N/A   Scattered Clouds
2:51 PM 91.0 °F 102.9 °F 75.9 °F 61% 29.83 in 10.0 mi SE 16.1 mph - N/A   Scattered Clouds
3:51 PM 91.0 °F 102.9 °F 75.9 °F 61% 29.81 in 10.0 mi SE 16.1 mph - N/A   Scattered Clouds
4:51 PM 91.0 °F 101.6 °F 75.0 °F 59% 29.80 in 10.0 mi SSE 16.1 mph 21.9 mph N/A   Partly Cloudy
5:51 PM 90.0 °F 101.3 °F 75.9 °F 63% 29.81 in 10.0 mi SE 17.3 mph - N/A   Partly Cloudy
6:51 PM 87.1 °F 97.3 °F 75.9 °F 69% 29.82 in 10.0 mi SE 15.0 mph - N/A   Partly Cloudy
7:51 PM 84.0 °F 92.6 °F 75.9 °F 76% 29.85 in 10.0 mi SE 11.5 mph - N/A   Scattered Clouds
8:51 PM 84.0 °F 92.6 °F 75.9 °F 76% 29.87 in 10.0 mi SE 15.0 mph - N/A   Scattered Clouds
9:51 PM 82.9 °F 90.2 °F 75.0 °F 77% 29.87 in 10.0 mi SE 13.8 mph - N/A   Partly Cloudy
10:51 PM 82.0 °F 88.6 °F 75.0 °F 79% 29.88 in 10.0 mi SSE 12.7 mph - N/A   Partly Cloudy
11:51 PM 81.0 °F 86.7 °F 75.0 °F 82% 29.89 in 10.0 mi SSE 8.1 mph - N/A   Partly Cloudy